Regional Weather Roundup
Issued by NWS

Home | Current Version | Previous Version | Graphics & Text | Print | Product List | Glossary On
Versions: 1 2 3 4 5 6 7 8 9 10 11 12 13 14 15 16 17 18 19 20 21 22 23 24 25 26 27 28 29 30 31 32 33 34 35 36 37 38 39 40 41 42 43 44 45 46 47 48 49 50
000
ASUS43 KFSD 260902
RWRSD

WEATHER ROUNDUP FOR SOUTH DAKOTA
NATIONAL WEATHER SERVICE SIOUX FALLS SD
400 AM CDT TUE JUL 26 2016

NOTE: "FAIR" INDICATES FEW OR NO CLOUDS BELOW 12,000 FEET WITH NO
SIGNIFICANT WEATHER AND/OR OBSTRUCTIONS TO VISIBILITY.


SDZ001>005-009-010-012>017-261000-
NORTHWEST AND NORTH CENTRAL SOUTH DAKOTA

CITY           SKY/WX    TMP DP  RH WIND       PRES   REMARKS
BUFFALO          N/A     68  54  60 NE10      29.94S
FAITH            N/A     70  58  65 S15       29.96F
MOBRIDGE       CLOUDY    77  60  55 S8        29.93S
$$

SDZ012>016-024>037-041>051-057-063-072>074-261000-
SOUTHWEST AND SOUTH CENTRAL SOUTH DAKOTA

CITY           SKY/WX    TMP DP  RH WIND       PRES   REMARKS
RAPID CTY ARPT CLEAR     67  59  75 S7        30.00F
PIERRE         PTCLDY    76  62  62 S16G26    29.96F
CUSTER         CLEAR     59  54  83 NW5       30.17F
ELLSWORTH AFB  CLEAR     70  61  71 S7        29.99F
PHILIP         CLEAR     75  65  70 SW5       29.97F
PINE RIDGE     CLEAR     73  64  73 S17G26    30.03F
WINNER         FAIR      75  60  59 S20G25    30.03F
$$

SDZ004>011-016>023-039-040-261000-
NORTHEAST SOUTH DAKOTA

CITY           SKY/WX    TMP DP  RH WIND       PRES   REMARKS
ABERDEEN       PTCLDY    66  58  75 S8        29.96S
WATERTOWN      CLEAR     70  63  78 S8        30.03S
BROOKINGS      CLEAR     67  63  87 S9        30.05F
SISSETON         N/A     76  60  57 W26G33    29.92F
$$

SDZ017-020-022-023-036>040-048>070-261000-
SOUTHEAST SOUTH DAKOTA

CITY           SKY/WX    TMP DP  RH WIND       PRES   REMARKS
SIOUX FALLS    CLEAR     70  63  78 SW6       30.07F
HURON          CLEAR     66  59  78 S8        30.00F
CHAMBERLAIN    CLEAR     74  65  71 S10       30.02F
MITCHELL       PTCLDY    66  62  87 S6        30.03F
YANKTON        CLEAR     66  61  82 SE6       30.05F
$$

ABBREVIATIONS USED IN REMARKS
   TC - TEMPERATURE IN CELSIUS
  WCI - WIND CHILL INDEX
   HX - HEAT INDEX
  VSB - VISIBILITY




USA.gov is the U.S. government's official web portal to all federal, state and local government web resources and services.